Welcome to the New NWS' Forecast!
Most changes are behind the scenes, but click here for differences you might notice.

Regional Weather Roundup (RWR)

Issued by Gray - Portland, ME (GYX)

                            
123 
ASUS41 KGYX 151210
RWRGYX
WEATHER ROUNDUP FOR MAINE AND NEW HAMPSHIRE
NATIONAL WEATHER SERVICE GRAY ME
800 AM EDT WED AUG 15 2018

MEZ002-005-006-010-012-015-018-020-021-024-026-027-029-151300-
MAINE
  
CITY           SKY/WX    TMP DP  RH WIND       PRES   REMARKS
PORTLAND       CLOUDY    71  69  93 CALM      29.83S                  
6HR MIN TEMP:  69; 6HR MAX TEMP:  71;                                

SANFORD        CLOUDY    69  68  96 NW5       29.84R                  
BAR HARBOR     FOG       67  67 100 VRB3      29.84S VSB 1/2          
WISCASSET      CLOUDY    70  70 100 S3        29.84R                  
6HR MIN TEMP:  69; 6HR MAX TEMP:  70;                                

ROCKLAND       CLOUDY    68  68 100 CALM      29.82S FOG              
FRYEBURG       CLOUDY    70  70 100 NW3       29.84S                  
6HR MIN TEMP:  68; 6HR MAX TEMP:  70;                                

LEWISTONAUBURN CLOUDY    70  68  93 CALM      29.84R                  
AUGUSTA        PTSUNNY   71  68  90 W3        29.83R                  
6HR MIN TEMP:  68; 6HR MAX TEMP:  72;                                

WATERVILLE     FAIR      71  68  90 CALM      29.81R                  
BANGOR         CLOUDY    71  70  96 S6        29.83S                  
6HR MIN TEMP:  70; 6HR MAX TEMP:  71; 6HR PCP: TRACE;                

GREENVILLE       N/A     67  65  93 VRB3      29.84R                  
6HR MIN TEMP:  66; 6HR MAX TEMP:  68;                                

MILLINOCKET    PTSUNNY   72  66  81 VRB5      29.82S                  
6HR MIN TEMP:  70; 6HR MAX TEMP:  73;                                

HOULTON        CLOUDY    71  68  90 SW9       29.79S                  
6HR MIN TEMP:  69; 6HR MAX TEMP:  71;                                

PRESQUE ISLE   CLOUDY    72  68  87 S7        29.79S                  
6HR MIN TEMP:  68; 6HR MAX TEMP:  72; 6HR PCP: TRACE;                

FRENCHVILLE    CLOUDY    71  67  87 S10       29.77S                  
6HR MIN TEMP:  69; 6HR MAX TEMP:  72; 6HR PCP:  0.13;                

CARIBOU        CLOUDY    72  68  87 SW6       29.77S                  
6HR MIN TEMP:  70; 6HR MAX TEMP:  72; 6HR PCP:  0.05;                

$$

NHZ002-005-008-009-011-012-014-151300-
NEW HAMPSHIRE
  
CITY           SKY/WX    TMP DP  RH WIND       PRES   REMARKS
PORTSMOUTH     CLOUDY    70  69  97 CALM      29.82R FOG              
ROCHESTER      CLOUDY    70  69  97 CALM      29.84R                  
6HR MIN TEMP:  69; 6HR MAX TEMP:  70;                                

MANCHESTER     NOT AVBL                                               
CONCORD        CLOUDY    71  69  93 NW3       29.84R                  
6HR MIN TEMP:  68; 6HR MAX TEMP:  71; 6HR PCP: TRACE;                

LACONIA        CLOUDY    70  68  93 SW6       29.85R                  
PLYMOUTH       CLOUDY    67  65  94 CALM      29.84S                  
BERLIN         CLOUDY    64  64 100 S6        29.87S FOG              
6HR MIN TEMP:  61; 6HR MAX TEMP:  65;                                

WHITEFIELD     FAIR      65  63  93 NE3       29.86S                  
6HR MIN TEMP:  57; 6HR MAX TEMP:  65; 6HR PCP: TRACE;                

JAFFREY        NOT AVBL                                               
LEBANON        CLOUDY    68  65  90 W3        29.85R                  
6HR MIN TEMP:  66; 6HR MAX TEMP:  68;                                

MT WASHINGTON  FOG       52  52 100 NW13        N/A  VSB 1/16         
6HR MIN TEMP:  50; 6HR MAX TEMP:  54;                                

$$

VTZ005-007-008-151300-
VERMONT
  
CITY           SKY/WX    TMP DP  RH WIND       PRES   REMARKS
ST JOHNSBURY     N/A     66  66 100 MISG      29.84R                  
MONTPELIER     CLOUDY    66  66 100 CALM      29.90R FOG              
BURLINGTON     PTSUNNY   71  67  87 SW6       29.85R                  
$$

MAZ007-012-024-CTZ003-RIZ002-NYZ038-NYZ072-151300-
SOUTHERN NEW ENGLAND AND NY
  
CITY           SKY/WX    TMP DP  RH WIND       PRES   REMARKS
BOSTON         CLOUDY    74  69  85 SW9       29.83R                  
WORCESTER      CLOUDY    67  67 100 W8        29.87R FOG              
NANTUCKET      PTSUNNY   73  72  96 S8        29.85S                  
PROVIDENCE     PTSUNNY   71  68  90 CALM      29.84R                  
HARTFORD       FAIR      72  68  87 W5        29.85R                  
ALBANY         FAIR      72  66  81 CALM      29.87R                  
NEW YORK CITY  FAIR      75  65  70 NW10      29.88R                  
$$

ANZ081-ANZ082-ANZ150-NHZ014-MEZ023>029-151300-
COASTAL MARINE OBSERVATIONS
  
STATION/POSITION TIME  TEMP    WIND        PRES    WAVE
                       AIR SEA DIR/SP/G            HT/PER
                 (UTC) (F)     (DEG/KT/KT) (MB)    (FT/S)
MOUNT DESERT ROC 1200   65     170/ 12/ 13 1010.4R
MATINICUS ROCK   1100   67     210/ 13/ 13 1009.7R
ISLE OF SHOALS   1100   68     170/  6/  6 1009.2R
JEFFREYS LEDGE   1136      69                N/A     2/ 7
$$

.............KEY..............
   WCI - WIND CHILL
   TC  - TEMPERATURE IN CELSIUS
   VSB - VISIBILITY IN MILES
   HX  - HEAT INDEX
   FAIR- INDICATES FEW OR NO CLOUDS BELOW 12,000 FT, WITH NO 
         SIGNIFICANT WEATHER AND/OR OBSTRUCTIONS TO VISIBILITY.